• In Hungary
  • List of Countries
  • For 7 days
  • Water Temperature
  • Satellite Maps
  • Weather Map
  • News
  • Weather Widgets
  • user-avatar
    Login

    Hourly Weather Madurai

    Today, 22 November, Wednesday

    Time Temperature Precipitation Wind Pressure Humidity
    00:00 +26°C° 0.1 mm 2 mps 745 mmHg 88%
    01:00 +26°C° 0.1 mm 2 mps 745 mmHg 89%
    02:00 +26°C° 0.1 mm 2 mps 744 mmHg 89%
    03:00 +26°C° 0 mm 2 mps 744 mmHg 89%
    04:00 +26°C° 0 mm 2 mps 744 mmHg 90%
    05:00 +26°C° 0 mm 2 mps 744 mmHg 90%
    06:00 +27°C° 0 mm 2 mps 745 mmHg 86%
    07:00 +28°C° 0 mm 2 mps 745 mmHg 81%
    08:00 +29°C° 0 mm 3 mps 746 mmHg 77%
    09:00 +30°C° 0.3 mm 3 mps 745 mmHg 72%
    10:00 +31°C° 0.3 mm 3 mps 745 mmHg 66%
    11:00 +33°C° 0.3 mm 4 mps 745 mmHg 61%
    12:00 +33°C° 0.7 mm 4 mps 744 mmHg 61%
    13:00 +33°C° 0.7 mm 4 mps 744 mmHg 61%
    14:00 +33°C° 0.7 mm 4 mps 743 mmHg 61%
    15:00 +31°C° 1 mm 3 mps 743 mmHg 67%
    16:00 +30°C° 1 mm 3 mps 743 mmHg 72%
    17:00 +29°C° 1 mm 3 mps 744 mmHg 78%
    18:00 +29°C° 0.1 mm 2 mps 744 mmHg 80%
    19:00 +28°C° 0.1 mm 2 mps 745 mmHg 83%
    20:00 +27°C° 0.1 mm 2 mps 745 mmHg 85%
    21:00 +27°C° 0 mm 2 mps 745 mmHg 86%
    22:00 +26°C° 0 mm 2 mps 745 mmHg 88%
    23:00 +26°C° 0 mm 2 mps 746 mmHg 89%

    Tomorrow, 23 November, Thursday

    Time Temperature Precipitation Wind Pressure Humidity
    00:00 +26°C° 0 mm 2 mps 745 mmHg 90%
    01:00 +25°C° 0 mm 2 mps 745 mmHg 90%
    02:00 +25°C° 0 mm 2 mps 745 mmHg 91%
    03:00 +25°C° 0 mm 2 mps 745 mmHg 90%
    04:00 +25°C° 0 mm 2 mps 745 mmHg 90%
    05:00 +25°C° 0 mm 3 mps 745 mmHg 90%
    06:00 +26°C° 0 mm 3 mps 745 mmHg 85%
    07:00 +27°C° 0 mm 3 mps 746 mmHg 81%
    08:00 +28°C° 0 mm 4 mps 746 mmHg 76%
    09:00 +29°C° 0 mm 4 mps 746 mmHg 70%
    10:00 +30°C° 0 mm 4 mps 746 mmHg 64%
    11:00 +32°C° 0 mm 4 mps 746 mmHg 58%
    12:00 +33°C° 0 mm 4 mps 745 mmHg 56%
    13:00 +33°C° 0 mm 4 mps 744 mmHg 53%
    14:00 +34°C° 0 mm 4 mps 743 mmHg 51%
    15:00 +33°C° 0 mm 3 mps 744 mmHg 56%
    16:00 +31°C° 0 mm 3 mps 744 mmHg 60%
    17:00 +30°C° 0 mm 3 mps 744 mmHg 65%
    18:00 +30°C° 0 mm 3 mps 745 mmHg 68%
    19:00 +29°C° 0 mm 3 mps 745 mmHg 71%
    20:00 +28°C° 0 mm 2 mps 746 mmHg 75%
    21:00 +27°C° 0 mm 2 mps 746 mmHg 77%
    22:00 +27°C° 0 mm 2 mps 746 mmHg 79%
    23:00 +27°C° 0 mm 2 mps 746 mmHg 82%

    Day after tomorrow, 24 November, Friday

    Time Temperature Precipitation Wind Pressure Humidity
    00:00 +26°C° 0 mm 2 mps 746 mmHg 83%
    01:00 +26°C° 0 mm 2 mps 745 mmHg 84%
    02:00 +26°C° 0 mm 2 mps 745 mmHg 86%
    03:00 +26°C° 0 mm 2 mps 745 mmHg 86%
    04:00 +25°C° 0 mm 2 mps 745 mmHg 87%
    05:00 +25°C° 0 mm 2 mps 745 mmHg 87%
    06:00 +26°C° 0 mm 2 mps 746 mmHg 83%
    07:00 +27°C° 0 mm 3 mps 746 mmHg 78%
    08:00 +28°C° 0 mm 3 mps 747 mmHg 74%
    09:00 +29°C° 0 mm 3 mps 747 mmHg 68%
    10:00 +32°C° 0 mm 4 mps 747 mmHg 62%
    11:00 +33°C° 0 mm 4 mps 746 mmHg 57%
    12:00 +33°C° 0 mm 4 mps 746 mmHg 56%
    13:00 +33°C° 0 mm 5 mps 745 mmHg 55%
    14:00 +34°C° 0 mm 5 mps 744 mmHg 54%
    15:00 +33°C° 0.2 mm 4 mps 744 mmHg 58%
    16:00 +32°C° 0.2 mm 4 mps 744 mmHg 63%
    17:00 +30°C° 0.2 mm 3 mps 744 mmHg 67%
    18:00 +29°C° 0.2 mm 3 mps 745 mmHg 71%
    19:00 +28°C° 0.2 mm 3 mps 746 mmHg 74%
    20:00 +27°C° 0.2 mm 3 mps 747 mmHg 78%
    21:00 +27°C° 0.1 mm 3 mps 747 mmHg 79%
    22:00 +27°C° 0.1 mm 3 mps 746 mmHg 81%
    23:00 +26°C° 0.1 mm 3 mps 746 mmHg 83%

    25 November, Saturday

    Time Temperature Precipitation Wind Pressure Humidity
    00:00 +26°C° 0.1 mm 3 mps 746 mmHg 84%
    01:00 +26°C° 0.1 mm 2 mps 745 mmHg 85%
    02:00 +26°C° 0.1 mm 2 mps 745 mmHg 86%
    03:00 +26°C° 0 mm 2 mps 745 mmHg 86%
    04:00 +25°C° 0 mm 2 mps 745 mmHg 87%
    05:00 +25°C° 0 mm 2 mps 745 mmHg 87%
    06:00 +26°C° 0 mm 3 mps 746 mmHg 83%
    07:00 +27°C° 0 mm 3 mps 747 mmHg 79%
    08:00 +28°C° 0 mm 4 mps 747 mmHg 75%
    09:00 +29°C° 0 mm 4 mps 747 mmHg 67%
    10:00 +30°C° 0 mm 4 mps 747 mmHg 59%
    11:00 +33°C° 0 mm 5 mps 747 mmHg 51%
    12:00 +33°C° 0 mm 5 mps 746 mmHg 51%
    13:00 +33°C° 0 mm 4 mps 745 mmHg 50%
    14:00 +33°C° 0 mm 4 mps 744 mmHg 50%
    15:00 +32°C° 0 mm 4 mps 745 mmHg 55%
    16:00 +30°C° 0 mm 3 mps 745 mmHg 60%
    17:00 +29°C° 0 mm 2 mps 745 mmHg 65%
    18:00 +29°C° 0 mm 2 mps 746 mmHg 67%
    19:00 +28°C° 0 mm 2 mps 746 mmHg 68%
    20:00 +28°C° 0 mm 2 mps 747 mmHg 69%
    21:00 +27°C° 0 mm 2 mps 747 mmHg 71%
    22:00 +27°C° 0 mm 2 mps 747 mmHg 72%
    23:00 +27°C° 0 mm 1 mps 747 mmHg 73%

    26 November, Sunday

    Time Temperature Precipitation Wind Pressure Humidity
    00:00 +27°C° 0 mm 2 mps 746 mmHg 74%
    01:00 +26°C° 0 mm 2 mps 745 mmHg 74%
    02:00 +26°C° 0 mm 2 mps 745 mmHg 75%
    03:00 +26°C° 0 mm 2 mps 745 mmHg 76%
    04:00 +26°C° 0 mm 2 mps 745 mmHg 76%
    05:00 +26°C° 0 mm 2 mps 745 mmHg 77%
    06:00 +26°C° 0 mm 2 mps 746 mmHg 75%
    07:00 +27°C° 0 mm 2 mps 746 mmHg 73%
    08:00 +27°C° 0 mm 3 mps 747 mmHg 71%
    09:00 +28°C° 0 mm 3 mps 747 mmHg 66%
    10:00 +29°C° 0 mm 3 mps 746 mmHg 60%
    11:00 +30°C° 0 mm 4 mps 746 mmHg 54%
    12:00 +30°C° 0 mm 4 mps 745 mmHg 54%
    13:00 +30°C° 0 mm 4 mps 745 mmHg 54%
    14:00 +30°C° 0 mm 3 mps 744 mmHg 54%
    15:00 +29°C° 0 mm 3 mps 744 mmHg 58%
    16:00 +28°C° 0 mm 3 mps 744 mmHg 62%
    17:00 +28°C° 0 mm 2 mps 745 mmHg 66%
    18:00 +27°C° 0.1 mm 3 mps 745 mmHg 65%
    19:00 +27°C° 0.1 mm 3 mps 745 mmHg 64%
    20:00 +27°C° 0.1 mm 4 mps 745 mmHg 63%
    21:00 +27°C° 0.2 mm 4 mps 745 mmHg 63%
    22:00 +27°C° 0.2 mm 5 mps 744 mmHg 63%
    23:00 +27°C° 0.2 mm 5 mps 743 mmHg 64%

    27 November, Monday

    Time Temperature Precipitation Wind Pressure Humidity
    00:00 +26°C° 2.5 mm 5 mps 743 mmHg 69%
    01:00 +25°C° 2.5 mm 5 mps 742 mmHg 75%
    02:00 +25°C° 2.5 mm 5 mps 741 mmHg 80%
    03:00 +23°C° 5.8 mm 6 mps 741 mmHg 82%
    04:00 +23°C° 5.8 mm 7 mps 741 mmHg 83%
    05:00 +23°C° 5.8 mm 7 mps 741 mmHg 85%
    06:00 +23°C° 3.1 mm 8 mps 741 mmHg 83%
    07:00 +23°C° 3.1 mm 8 mps 741 mmHg 82%
    08:00 +23°C° 3.1 mm 9 mps 742 mmHg 81%
    09:00 +24°C° 1.1 mm 9 mps 741 mmHg 81%
    10:00 +24°C° 1.1 mm 10 mps 741 mmHg 81%
    11:00 +26°C° 1.1 mm 10 mps 740 mmHg 81%
    12:00 +26°C° 0.5 mm 10 mps 740 mmHg 81%
    13:00 +26°C° 0.5 mm 10 mps 739 mmHg 82%
    14:00 +26°C° 0.5 mm 10 mps 739 mmHg 83%
    15:00 +26°C° 0.3 mm 9 mps 739 mmHg 84%
    16:00 +26°C° 0.3 mm 8 mps 740 mmHg 85%
    17:00 +26°C° 0.3 mm 7 mps 740 mmHg 86%
    18:00 +26°C° 0.1 mm 7 mps 741 mmHg 87%
    19:00 +26°C° 0.1 mm 6 mps 741 mmHg 88%
    20:00 +26°C° 0.1 mm 6 mps 742 mmHg 89%
    21:00 +26°C° 0.1 mm 6 mps 742 mmHg 90%
    22:00 +26°C° 0.1 mm 5 mps 742 mmHg 91%
    23:00 +26°C° 0.1 mm 5 mps 741 mmHg 92%
    Show more